Location: Peterborough
(44.3091°N, 78.3197°W)
Time: 00:02:50
(UTC-04:00)

Vanguard 2 Rocket - Pass Details

Date: 30 March 2023
Orbit: 554 x 3314 km, 32.9° (Epoch: 02 June)

Event Time Altitude Azimuth Distance (km) Brightness Sun altitude
Rises 01:13:01 0° 266° (W) 4,808 10.6 -42.0°
Enters shadow 01:14:35 - 261° (W) 4,526 10.4 -42.0°
Reaches altitude 10° 01:16:40 10° 253° (WSW) 4,222 - -42.0°
Maximum altitude 01:25:25 24° 206° (SSW) 4,047 - -42.0°
Drops below altitude 10° 01:37:24 10° 162° (SSE) 5,887 - -41.8°
Sets 01:43:58 0° 151° (SSE) 7,168 - -41.7°
